Regional Weather Roundup
Issued by NWS State College, PA

Home | Current Version | Previous Version | Graphics & Text | Print | Product List | Glossary On
Versions: 1 2 3 4 5 6 7 8 9 10 11 12 13 14 15 16 17 18 19 20 21 22 23 24 25 26 27 28 29 30 31 32 33 34 35 36 37 38 39 40 41 42 43 44 45 46 47 48 49 50
000
ASUS41 KCTP 300303
RWRCTP

REGIONAL WEATHER ROUNDUP
NATIONAL WEATHER SERVICE STATE COLLEGE PA
1100 PM EDT SAT AUG 29 2015

Note: "fair" indicates few or no clouds below 12,000 feet with no
significant weather and/or obstructions to visibility.

* = STATION THAT DOES NOT REPORT PRECIPITATION /E.G. RAIN...SNOW...ETC/
    THUNDER OR FOG.

PAZ002>004-007>009-013>016-020>023-029>032-300400-
WESTERN PENNSYLVANIA

CITY           SKY/WX    TMP DP  RH WIND       PRES   REMARKS
ERIE           LGT RAIN  69  63  81 S7        30.10R
MEADVILLE      CLOUDY    69  62  78 CALM      30.12F
FRANKLIN*      CLOUDY    68  63  83 CALM      30.14S
NEW CASTLE     FAIR      67  67 100 CALM      30.11S FOG
BEAVER COUNTY  NOT AVBL
BUTLER*        MOCLDY    70  63  78 CALM      30.14R
PITTSBURGH INT MOCLDY    75  63  66 CALM      30.11S
PITTSBURGH     PTCLDY    75  57  53 S6        30.11S
INDIANA*       MOCLDY    66  61  82 CALM      30.16S
LATROBE        NOT AVBL
WASHINGTON CO* PTCLDY    63  61  94 CALM      30.13S
$$

PAZ004>006-010>012-017>019-024>028-033>037-041-042-045-046-049>053-300400-
CENTRAL PENNSYLVANIA

CITY           SKY/WX    TMP DP  RH WIND       PRES   REMARKS
BRADFORD       MOCLDY    61  56  83 SE3       30.16S
DUBOIS         PTCLDY    69  59  70 SE5       30.14S
CLEARFIELD     PTCLDY    62  57  83 CALM      30.15S
JOHNSTOWN      CLEAR     68  53  58 S6        30.17F
ALTOONA        PTCLDY    62  57  83 CALM      30.15S
STATE COLLEGE  PTCLDY    65  60  84 CALM      30.13F
WILLIAMSPORT   PTCLDY    66  60  81 CALM      30.11R
SELINSGROVE    PTCLDY    62  60  93 CALM      30.12R FOG
FT INDIANTOWN  MOCLDY    66  64  92 E2        30.12S
CAPITAL CITY   MOCLDY    75  64  68 VRB3      30.11R
HARRISBURG     MOCLDY    72  65  78 CALM      30.10S
YORK           PTCLDY    72  65  78 S5        30.12S
$$

PAZ038>040-043-044-047-048-054-055-060>062-067>071-300400-
EASTERN PENNSYLVANIA

CITY           SKY/WX    TMP DP  RH WIND       PRES   REMARKS
SCRANTON       PTCLDY    66  58  75 SE3       30.12S
MOUNT POCONO   PTCLDY    60  57  89 W3        30.17S
ALLENTOWN      PTCLDY    71  62  73 W3        30.11R
QUAKERTOWN*    MOCLDY    68  64  88 CALM      30.14R
READING        MOCLDY    73  63  70 SE3       30.11R
LANCASTER      MOCLDY    69  63  81 E3        30.12S
COATESVILLE    PTCLDY    68  64  88 CALM      30.14F
POTTSTOWN      MOCLDY    71  64  78 CALM      30.14R
BLUE BELL      MOCLDY    72  63  73 S3        30.12R
DOYLESTOWN     PTCLDY    70  61  73 S3        30.12S
WILLOW GROVE   NOT AVBL
NORTH PHILA    FAIR      76  58  53 SW8       30.13S
PHILADELPHIA   MOCLDY    75  62  64 SW8       30.13S
$$


USA.gov is the U.S. government's official web portal to all federal, state and local government web resources and services.